Vertical_Velocity
0 0 1 0 0 0 -0 -2 -1 -0 1 1 1 -0 -2 -2 0 2 2 2 -0 -1 -0 3 6 6 5 3 1 -0 -1 -1 1 3 4 6 4 2 -0 -2 0 3 6 7 9 15 22 25 23 21 19 17 16 16 16 15 14 12 10 8 7 8 9 8 4 4 4 5 7
1 2 2 2 1 1 0 -0 1 1 1 1 0 -0 -1 -0 0 1 2 2 -1 -2 -0 4 7 6 3 0 -0 -1 -2 -1 1 3 5 6 4 2 -0 -1 0 3 6 7 6 10 16 22 25 26 24 22 21 20 18 15 13 10 8 6 8 11 13 11 5 4 6 8 10
2 1 1 1 1 1 1 1 1 1 1 1 1 1 1 0 1 2 2 1 -2 -1 2 6 7 5 2 -1 -1 -1 -2 -1 1 4 5 5 3 1 -0 -1 1 3 6 6 5 4 7 14 20 24 27 28 26 23 19 15 12 8 6 6 10 14 15 12 6 5 6 9 9
2 1 -0 -0 1 2 2 1 2 2 2 2 1 1 1 0 2 2 2 0 -1 -0 2 5 5 3 1 -0 -0 -1 -1 -0 2 4 4 3 2 0 -1 -0 1 3 3 1 2 2 2 6 11 15 20 26 25 20 14 10 8 6 7 8 11 12 12 9 6 5 7 8 8
1 1 0 0 2 2 3 4 4 3 2 2 2 1 1 1 2 3 2 1 -0 -1 1 5 4 2 1 2 1 -0 -1 1 3 4 3 2 1 -0 -0 1 2 2 1 0 1 1 2 4 6 8 10 17 17 13 8 5 6 7 8 9 9 8 7 5 5 6 6 7 7
1 1 1 1 2 3 4 4 4 3 2 1 1 1 1 2 3 3 2 0 -3 -2 2 7 4 3 3 3 1 -1 -1 1 4 4 3 1 -0 -0 0 1 1 2 3 4 3 4 4 6 6 6 7 13 12 8 4 4 8 10 9 7 4 3 3 4 5 5 6 5 6
1 1 1 1 2 3 4 4 4 4 3 2 1 1 1 2 3 2 0 -3 -1 1 3 5 4 4 4 2 -1 -2 -1 1 3 3 2 0 -0 -0 0 1 1 2 4 6 7 6 5 5 5 6 9 15 12 7 4 6 10 11 8 4 2 2 2 2 3 4 4 2 3
-0 0 1 2 2 3 4 4 5 4 3 3 2 2 2 3 3 1 -1 -0 2 2 2 3 4 4 3 1 -1 -2 -1 2 3 2 1 0 0 1 1 2 3 3 2 2 5 5 3 3 4 7 12 17 13 9 6 8 10 9 6 4 3 2 2 1 2 3 2 0 2
-0 0 1 1 2 3 3 4 4 4 4 4 4 4 4 3 1 0 0 2 3 2 2 4 4 4 3 1 -1 -1 -1 1 2 1 1 1 1 2 3 4 4 3 2 1 2 2 2 2 4 9 14 14 11 9 8 9 10 8 7 5 4 3 1 0 2 2 2 1 3
0 0 1 1 2 2 3 3 4 4 4 5 5 5 4 2 2 1 2 4 5 5 5 4 4 4 3 0 -1 -1 -0 1 1 1 1 2 3 4 4 5 4 3 2 2 2 2 1 2 7 11 12 9 8 7 7 8 9 8 8 7 5 3 1 0 2 3 3 3 4
2 1 1 1 2 2 2 3 3 4 5 5 4 4 3 3 3 3 4 6 6 5 4 4 4 4 2 -0 -2 -1 0 1 1 2 3 5 6 7 7 6 5 4 3 3 2 2 3 5 10 12 10 7 7 7 8 8 8 8 8 7 6 4 3 2 3 4 5 4 6
4 5 5 3 2 2 2 2 2 3 4 3 2 2 3 3 4 4 5 6 5 4 3 4 3 3 1 -1 -1 -0 1 0 0 3 8 11 11 10 8 6 4 3 3 3 2 4 6 11 14 14 12 10 10 11 11 11 10 9 8 8 6 5 4 4 5 6 7 7 7
10 10 7 2 2 1 2 2 2 2 2 2 2 2 3 4 4 5 5 4 4 4 3 3 2 1 0 -1 -0 -0 -0 -1 2 7 12 13 10 8 6 4 2 2 2 2 4 8 13 16 17 16 16 16 17 17 16 14 12 10 8 8 8 7 6 6 7 8 8 9 8
12 10 6 4 3 2 1 2 2 2 1 2 1 1 2 2 3 3 3 3 3 3 3 3 2 2 1 0 1 1 2 3 6 9 10 8 5 3 1 0 -0 1 2 5 10 14 17 18 17 18 18 19 18 18 17 15 12 10 9 9 9 9 9 9 9 9 8 8 5
8 8 8 8 4 1 1 3 2 1 0 0 -0 -0 0 2 3 3 3 1 1 1 2 2 1 1 2 3 5 6 7 7 8 8 7 4 1 -0 -0 0 2 4 7 11 14 16 16 16 16 15 15 14 12 11 10 9 8 7 7 8 9 9 9 10 8 7 6 5 3
7 8 8 6 2 1 2 1 -1 0 2 5 6 6 7 8 10 8 4 -0 -0 -0 -0 -1 -0 2 4 6 7 8 8 8 8 7 6 3 2 1 2 3 7 10 12 14 14 14 13 11 10 9 8 6 4 3 2 2 3 3 4 6 7 7 8 7 6 4 4 4 4
8 8 6 4 1 1 2 2 5 9 14 18 18 14 11 10 9 6 3 3 2 1 2 2 4 5 6 6 4 5 7 8 8 7 6 4 3 2 3 6 9 12 14 14 12 10 8 6 4 3 2 0 -1 -1 -1 -1 -0 1 2 3 4 5 5 4 3 3 3 5 6
6 5 4 2 3 5 10 16 20 22 23 25 17 9 4 3 2 6 12 18 14 11 9 10 8 7 6 5 4 6 7 8 8 7 6 4 1 2 3 6 8 10 11 10 8 6 4 2 1 -0 -1 -1 -2 -2 -1 -1 -0 0 1 2 2 2 2 2 2 3 4 5 6
2 1 1 2 8 15 22 31 30 27 24 24 9 1 -2 -1 5 14 24 29 27 20 14 11 8 7 6 6 4 4 5 8 9 8 5 2 0 1 3 5 6 6 7 7 6 4 2 0 -1 -1 -2 -2 -2 -2 -1 -1 -0 -0 0 1 0 0 0 1 2 3 4 5 4
-2 -4 -3 2 12 17 21 27 28 28 26 22 5 -2 1 11 19 24 27 27 26 19 11 5 5 6 7 7 4 3 2 5 8 7 5 2 1 2 3 5 5 5 5 5 4 3 2 1 -0 -1 -2 -3 -3 -2 -2 -1 -0 -0 0 0 -0 -0 0 1 2 3 4 4 3
-2 -5 -6 -1 8 11 12 16 24 29 29 23 4 -2 6 29 30 31 29 27 22 17 10 4 4 7 10 9 5 2 0 0 4 6 6 4 2 2 2 3 4 4 3 2 2 2 2 1 1 -0 -2 -3 -4 -3 -3 -1 -0 0 0 0 0 0 1 1 1 2 2 2 2
2 0 -0 3 2 2 5 14 22 28 30 29 7 -1 6 28 32 35 36 32 26 23 20 17 14 14 13 10 5 -0 -4 -5 -0 4 6 5 3 1 0 -0 -0 -0 -0 -0 1 1 1 1 0 -0 -1 -2 -3 -4 -4 -4 -3 -2 -1 -0 1 1 1 0 -0 -1 -0 0 0
7 8 8 7 2 1 6 14 17 20 24 32 14 3 3 15 21 27 31 31 29 28 27 26 24 21 18 14 6 -0 -3 -3 2 6 7 6 4 2 -0 -3 -4 -4 -4 -3 -1 -1 -1 -1 -1 -1 -1 -1 -0 -1 -2 -3 -3 -4 -3 -2 -1 -0 -0 -1 -3 -3 -2 -0 1
9 8 7 4 2 3 6 10 10 11 15 22 17 9 4 6 9 13 16 18 18 18 18 18 16 15 14 13 10 8 8 10 12 12 11 9 6 4 1 -2 -4 -6 -7 -5 -3 -2 -2 -2 -2 -1 -0 1 4 4 4 3 1 0 -0 -1 -0 -0 -1 -2 -3 -3 -1 1 4
7 7 6 4 2 2 2 3 2 3 5 7 11 10 7 5 6 9 11 12 9 7 6 6 6 6 8 10 13 16 17 17 16 14 11 7 4 2 -0 -2 -5 -6 -7 -7 -5 -3 -2 -2 -1 -0 1 3 6 7 7 6 6 6 5 4 2 1 -1 -2 -1 0 3 4 5
4 6 7 4 2 1 -1 -2 -2 -2 -2 -1 1 2 2 1 2 5 8 11 11 9 8 6 6 8 9 12 13 14 14 14 11 8 5 2 -0 -1 -2 -3 -4 -5 -6 -5 -4 -2 -1 -1 -0 0 2 4 6 7 7 6 7 8 8 7 4 1 -0 -0 2 4 5 4 3
-1 0 1 2 1 1 -0 -0 -2 -4 -5 -5 -4 -3 -2 -1 -1 0 2 5 8 11 13 13 12 11 10 9 8 8 7 6 4 2 -0 -2 -3 -3 -3 -3 -3 -3 -3 -2 -1 -0 -0 -0 0 1 3 4 5 5 6 6 6 7 7 6 4 3 2 4 5 5 4 3 2
0 -1 -2 -1 2 3 4 2 -0 -2 -4 -4 -5 -5 -4 -3 -3 -2 -1 0 3 6 8 9 8 6 4 2 1 0 -0 -1 -2 -2 -3 -3 -3 -1 -0 -0 -0 -0 -0 0 1 2 2 2 2 3 4 4 4 6 6 6 6 6 6 6 6 6 6 5 5 4 3 1 1
14 10 5 1 -0 1 2 4 3 2 1 -1 -3 -4 -4 -4 -4 -4 -4 -3 -1 1 2 4 3 2 0 -2 -3 -3 -3 -3 -3 -3 -2 -1 0 2 4 4 4 4 4 4 4 4 5 5 5 5 5 4 5 6 7 8 8 8 8 8 8 7 6 4 3 1 0 0 1
30 27 22 15 8 4 3 4 3 2 1 1 0 -1 -2 -3 -3 -3 -4 -5 -4 -3 -0 2 3 3 2 1 -0 -1 -2 -2 -1 -1 0 2 4 6 6 7 7 8 8 8 8 8 7 7 8 8 7 6 6 6 6 7 8 8 7 7 6 5 4 2 1 -0 -0 -0 -0
28 30 30 29 24 20 16 13 8 4 0 -0 1 -0 -1 -2 -2 -1 -1 -2 -2 -2 -1 0 2 4 4 4 3 2 2 2 2 3 4 5 6 7 7 8 8 9 9 10 9 9 8 7 7 8 8 7 6 5 5 5 5 5 5 4 4 3 2 1 -0 -0 -1 -1 -1
16 20 24 27 29 29 29 28 26 21 14 6 2 1 -0 -1 -0 0 1 -0 -1 -1 -1 -0 2 3 3 4 5 6 6 6 5 5 5 6 6 7 7 8 8 8 9 9 8 8 7 6 6 5 5 4 4 3 3 3 3 3 2 2 2 1 0 -0 -1 -1 -1 -1 -1
10 12 14 17 21 25 29 32 35 35 31 22 12 6 4 4 4 3 3 2 0 -1 -1 -0 0 1 1 3 5 6 7 7 6 6 5 4 5 5 6 6 6 7 7 6 6 6 6 4 3 2 1 1 1 1 2 2 1 1 0 -0 -0 -1 -1 -1 -2 -1 -1 -1 -1
11 11 11 11 13 16 20 23 27 30 30 27 21 15 10 8 7 8 8 7 5 3 2 1 0 0 1 2 3 4 4 4 4 4 4 4 4 4 4 4 4 4 4 4 4 3 2 2 1 -0 -1 -1 -1 -0 0 0 -0 -0 -1 -1 -1 -1 -1 -1 -1 -1 -1 -1 -0
9 11 12 12 12 12 13 14 16 19 21 22 21 18 15 11 9 9 9 10 9 8 6 5 5 5 5 5 4 3 2 2 2 2 2 2 2 3 3 3 2 2 2 1 1 0 -1 -1 -2 -2 -2 -2 -1 -1 -0 -0 -0 -1 -1 -1 -1 -0 -0 -0 -1 -1 -1 -0 1
4 5 7 10 11 12 13 13 13 14 14 16 17 17 17 14 11 9 8 8 8 9 9 9 9 10 11 11 9 7 6 4 4 3 2 2 2 2 2 1 1 0 0 -0 -1 -1 -2 -3 -3 -3 -2 -1 -1 -1 -1 -0 -1 -1 -1 -0 -0 -0 -0 -0 -0 0 1 1 2
1 1 2 3 4 7 9 11 12 13 14 15 16 16 17 16 14 12 9 8 9 9 9 8 9 10 12 13 13 12 10 9 7 6 5 4 3 2 2 1 0 -0 -0 -1 -1 -1 -2 -3 -3 -2 -2 -1 -1 -0 -0 -0 -0 0 0 0 1 1 1 1 2 3 3 4 4
-1 -1 -0 -0 0 1 3 4 6 8 10 12 14 15 17 18 17 16 14 12 11 11 10 9 9 10 10 11 11 12 12 12 11 9 8 6 5 4 3 2 1 1 0 0 0 1 1 1 -0 -0 -0 -0 0 1 1 1 2 2 2 3 3 4 4 5 5 6 6 7 6
-2 -2 -2 -2 -2 -2 -1 -0 1 2 3 4 7 9 12 15 17 18 18 17 16 14 13 12 12 12 11 11 11 11 11 11 11 10 9 8 6 6 5 5 4 3 2 2 2 3 5 6 5 4 3 2 2 3 3 4 4 5 5 6 7 8 8 8 8 8 8 7 7
-2 -2 -3 -3 -3 -4 -4 -3 -2 -2 -1 -0 1 2 4 6 9 13 16 19 20 19 18 16 15 14 14 13 12 12 11 10 9 8 8 7 6 6 5 6 6 6 5 5 5 5 6 7 8 8 7 6 5 5 5 6 6 7 8 9 10 10 10 9 8 7 7 6 6
-1 -2 -2 -2 -3 -4 -4 -5 -5 -5 -4 -3 -3 -2 -1 0 1 3 6 10 14 16 18 19 19 18 17 15 14 12 10 8 7 7 7 7 6 5 4 4 5 6 6 6 7 7 7 8 9 9 10 9 8 7 7 7 8 8 9 10 10 10 10 8 7 6 6 6 6
Height
5528 5532 5536 5540 5545 5550 5556 5562 5568 5574 5581 5588 5594 5600 5605 5610 5614 5619 5624 5629 5633 5637 5642 5646 5652 5655 5658 5660 5662 5664 5666 5669 5670 5673 5675 5678 5680 5684 5687 5690 5693 5696 5698 5700 5703 5707 5709 5709 5709 5710 5712 5714 5714 5714 5716 5719 5721 5723 5725 5728 5729 5731 5731 5732 5733 5734 5735 5736 5738
5524 5528 5531 5535 5540 5545 5551 5557 5563 5569 5576 5582 5589 5595 5601 5606 5611 5615 5620 5625 5629 5634 5638 5643 5648 5652 5654 5656 5658 5660 5662 5665 5667 5669 5672 5674 5677 5680 5683 5686 5689 5691 5694 5698 5701 5703 5704 5705 5707 5709 5711 5712 5712 5713 5714 5716 5718 5720 5723 5724 5727 5728 5728 5728 5729 5730 5732 5733 5735
5522 5525 5528 5532 5536 5541 5546 5552 5559 5565 5571 5578 5584 5591 5597 5602 5607 5612 5616 5621 5626 5630 5635 5639 5644 5648 5650 5652 5654 5657 5659 5661 5664 5666 5668 5670 5673 5676 5679 5682 5685 5689 5692 5694 5697 5699 5700 5701 5704 5707 5709 5711 5712 5712 5713 5714 5716 5718 5719 5721 5724 5724 5724 5725 5726 5727 5729 5730 5732
5521 5524 5526 5529 5533 5537 5543 5549 5554 5561 5567 5574 5580 5586 5592 5598 5603 5608 5613 5618 5623 5627 5632 5636 5639 5644 5647 5649 5651 5654 5656 5658 5660 5662 5664 5667 5670 5673 5676 5679 5682 5684 5688 5691 5695 5697 5698 5699 5700 5703 5706 5709 5709 5710 5711 5712 5714 5715 5716 5718 5720 5720 5720 5721 5723 5724 5726 5728 5729
5518 5520 5523 5526 5530 5534 5539 5545 5551 5557 5563 5569 5576 5582 5588 5594 5599 5604 5609 5614 5619 5624 5628 5633 5636 5640 5644 5646 5648 5650 5652 5654 5657 5659 5661 5664 5667 5669 5673 5676 5679 5682 5685 5689 5692 5694 5696 5697 5698 5699 5702 5705 5706 5706 5707 5708 5710 5711 5713 5714 5715 5716 5717 5719 5720 5722 5724 5725 5727
5516 5518 5521 5524 5528 5532 5536 5542 5547 5553 5559 5565 5572 5578 5584 5590 5596 5601 5606 5611 5616 5621 5625 5629 5633 5637 5641 5643 5645 5647 5649 5651 5654 5656 5659 5661 5664 5667 5670 5673 5676 5679 5683 5687 5689 5691 5693 5694 5696 5698 5700 5703 5704 5703 5703 5705 5706 5708 5709 5710 5711 5712 5714 5716 5717 5719 5721 5722 5724
5515 5518 5520 5523 5527 5530 5534 5539 5544 5550 5556 5562 5569 5575 5581 5587 5593 5598 5603 5609 5614 5618 5622 5625 5630 5634 5637 5639 5641 5644 5646 5649 5651 5654 5656 5659 5661 5664 5667 5670 5674 5677 5681 5684 5687 5689 5690 5692 5694 5697 5699 5701 5701 5700 5700 5701 5703 5704 5705 5706 5707 5709 5711 5713 5714 5716 5718 5719 5721
5516 5518 5520 5523 5526 5529 5534 5538 5543 5548 5554 5560 5566 5573 5579 5584 5590 5595 5601 5607 5611 5615 5619 5622 5627 5631 5634 5636 5639 5641 5643 5646 5649 5651 5654 5656 5659 5662 5665 5669 5672 5676 5679 5682 5684 5686 5688 5690 5693 5695 5697 5697 5697 5697 5697 5699 5700 5701 5702 5703 5705 5707 5709 5710 5712 5714 5715 5716 5717
5516 5518 5520 5523 5526 5529 5534 5538 5543 5548 5553 5559 5564 5571 5576 5582 5587 5593 5599 5604 5609 5613 5616 5620 5625 5628 5631 5634 5636 5639 5641 5643 5646 5649 5652 5654 5658 5661 5664 5668 5671 5675 5677 5679 5682 5684 5686 5689 5691 5693 5694 5694 5694 5694 5694 5696 5697 5698 5699 5700 5702 5704 5706 5707 5709 5710 5711 5712 5713
5517 5519 5521 5524 5527 5530 5534 5539 5544 5549 5554 5559 5564 5569 5575 5580 5586 5591 5597 5602 5606 5611 5615 5619 5622 5626 5629 5632 5634 5636 5639 5641 5644 5647 5650 5654 5657 5660 5664 5667 5670 5673 5675 5677 5679 5681 5683 5686 5688 5689 5690 5690 5691 5692 5692 5693 5694 5695 5696 5698 5699 5701 5703 5704 5705 5707 5708 5708 5709
5518 5521 5523 5526 5529 5533 5536 5540 5545 5550 5556 5560 5564 5569 5574 5579 5585 5590 5595 5600 5604 5609 5613 5616 5620 5624 5628 5631 5633 5634 5637 5640 5644 5647 5651 5654 5657 5660 5664 5666 5668 5670 5671 5673 5675 5678 5680 5682 5684 5685 5685 5686 5688 5689 5689 5690 5691 5692 5694 5695 5696 5698 5699 5701 5702 5703 5704 5704 5705
5520 5523 5526 5529 5532 5534 5538 5542 5546 5551 5556 5560 5565 5570 5575 5580 5585 5590 5595 5599 5603 5607 5611 5614 5619 5623 5626 5629 5630 5633 5636 5639 5643 5647 5652 5655 5658 5660 5663 5664 5665 5666 5668 5669 5672 5674 5676 5678 5679 5680 5681 5682 5684 5685 5685 5686 5688 5689 5690 5692 5694 5695 5696 5697 5699 5699 5700 5701 5702
5523 5526 5530 5532 5534 5537 5540 5544 5548 5552 5557 5562 5567 5572 5576 5581 5586 5590 5594 5599 5602 5606 5609 5613 5617 5620 5623 5626 5629 5632 5635 5639 5643 5648 5652 5654 5656 5658 5659 5661 5662 5663 5664 5666 5668 5670 5672 5673 5674 5676 5677 5678 5679 5680 5682 5683 5684 5686 5687 5689 5690 5692 5693 5694 5695 5696 5697 5698 5698
5526 5530 5533 5535 5538 5541 5543 5547 5551 5555 5560 5565 5569 5574 5578 5582 5586 5590 5594 5599 5602 5606 5609 5612 5615 5618 5622 5625 5630 5633 5636 5640 5644 5647 5650 5652 5653 5654 5656 5657 5658 5660 5661 5663 5664 5666 5667 5669 5670 5671 5673 5674 5676 5677 5679 5680 5681 5682 5684 5685 5687 5688 5689 5690 5691 5692 5693 5694 5695
5529 5532 5534 5538 5542 5544 5546 5550 5554 5558 5563 5568 5572 5576 5580 5584 5588 5592 5596 5600 5604 5606 5609 5612 5615 5619 5623 5627 5631 5634 5636 5639 5641 5644 5646 5648 5649 5651 5653 5654 5655 5656 5658 5659 5660 5662 5663 5664 5665 5666 5668 5669 5671 5673 5674 5676 5677 5679 5680 5682 5683 5684 5686 5687 5688 5689 5690 5691 5693
5531 5534 5537 5542 5545 5547 5550 5553 5558 5563 5568 5574 5579 5582 5585 5589 5593 5597 5601 5604 5605 5607 5609 5612 5615 5619 5624 5627 5629 5631 5633 5636 5639 5641 5643 5644 5646 5648 5649 5650 5651 5653 5654 5655 5657 5658 5659 5660 5661 5662 5663 5664 5666 5668 5670 5672 5673 5674 5676 5678 5679 5681 5682 5683 5684 5686 5687 5689 5690
5535 5538 5541 5544 5547 5550 5553 5558 5564 5571 5577 5582 5584 5586 5588 5591 5596 5601 5605 5608 5608 5609 5611 5613 5616 5620 5622 5623 5625 5629 5631 5634 5636 5639 5640 5642 5643 5645 5646 5647 5648 5649 5651 5652 5653 5654 5655 5656 5657 5659 5660 5662 5663 5665 5667 5669 5669 5671 5672 5674 5675 5677 5678 5679 5681 5683 5684 5686 5687
5539 5542 5544 5546 5549 5553 5558 5565 5572 5578 5582 5584 5585 5586 5588 5594 5599 5603 5607 5610 5612 5613 5614 5616 5617 5618 5619 5621 5624 5627 5629 5632 5634 5636 5637 5639 5641 5642 5644 5644 5645 5647 5648 5649 5650 5651 5652 5654 5655 5657 5658 5660 5661 5663 5664 5665 5666 5668 5669 5670 5672 5673 5675 5676 5678 5679 5681 5682 5683
5542 5544 5547 5549 5552 5558 5565 5572 5577 5581 5584 5585 5584 5586 5590 5595 5599 5603 5605 5607 5610 5614 5615 5616 5617 5619 5620 5622 5624 5625 5627 5629 5631 5633 5634 5636 5638 5639 5641 5641 5643 5644 5645 5646 5648 5649 5650 5652 5653 5654 5656 5657 5659 5660 5661 5662 5663 5664 5665 5667 5668 5669 5671 5673 5674 5676 5677 5678 5679
5545 5548 5550 5552 5557 5563 5569 5574 5579 5583 5585 5585 5586 5589 5593 5597 5598 5599 5602 5604 5607 5610 5613 5614 5617 5619 5621 5623 5624 5625 5627 5628 5630 5632 5633 5634 5636 5637 5638 5639 5640 5641 5643 5644 5646 5647 5649 5650 5651 5652 5653 5654 5655 5656 5658 5659 5660 5661 5662 5663 5664 5666 5668 5669 5671 5672 5674 5675 5676
5550 5552 5555 5558 5562 5567 5571 5576 5579 5582 5584 5585 5587 5590 5594 5597 5597 5598 5600 5603 5605 5607 5609 5612 5614 5617 5619 5621 5623 5624 5626 5628 5630 5632 5633 5633 5634 5635 5636 5637 5638 5639 5641 5642 5644 5645 5646 5647 5648 5649 5649 5650 5651 5653 5654 5655 5656 5658 5659 5660 5662 5663 5664 5666 5667 5669 5670 5671 5673
5553 5555 5559 5562 5568 5572 5575 5577 5579 5580 5582 5585 5588 5590 5594 5597 5598 5598 5599 5601 5603 5605 5608 5610 5612 5614 5616 5618 5620 5621 5624 5626 5629 5630 5632 5632 5633 5634 5635 5636 5637 5638 5639 5640 5641 5642 5643 5644 5645 5646 5646 5647 5648 5648 5649 5650 5651 5653 5655 5657 5658 5659 5661 5663 5664 5665 5667 5668 5670
5558 5560 5564 5567 5570 5573 5575 5577 5579 5581 5584 5588 5590 5592 5594 5596 5597 5598 5598 5599 5601 5604 5606 5609 5611 5614 5616 5618 5619 5620 5623 5625 5627 5628 5629 5629 5630 5632 5633 5634 5635 5636 5637 5637 5638 5639 5640 5641 5642 5643 5644 5645 5646 5646 5647 5648 5649 5650 5651 5653 5654 5656 5658 5659 5660 5662 5664 5665 5667
5564 5565 5567 5569 5571 5572 5573 5574 5576 5578 5580 5584 5589 5592 5594 5596 5596 5597 5598 5598 5600 5602 5604 5606 5608 5611 5614 5616 5618 5620 5622 5623 5624 5625 5626 5626 5627 5628 5630 5632 5633 5634 5634 5634 5635 5636 5637 5638 5639 5640 5641 5642 5644 5644 5645 5646 5648 5649 5650 5651 5652 5654 5655 5656 5657 5658 5660 5662 5663
5567 5568 5569 5570 5572 5573 5574 5576 5577 5579 5580 5582 5584 5588 5591 5593 5595 5597 5598 5599 5600 5601 5602 5604 5606 5609 5612 5614 5616 5617 5619 5620 5621 5622 5623 5624 5624 5625 5626 5628 5629 5630 5631 5631 5632 5633 5634 5635 5636 5637 5638 5639 5640 5641 5642 5644 5645 5647 5649 5650 5651 5651 5652 5653 5654 5655 5657 5658 5659
5567 5569 5570 5571 5573 5574 5576 5577 5579 5580 5582 5584 5585 5587 5589 5591 5593 5594 5596 5598 5600 5602 5603 5604 5606 5607 5609 5611 5612 5614 5615 5617 5618 5619 5621 5622 5623 5624 5625 5626 5627 5628 5628 5628 5629 5630 5631 5632 5633 5634 5635 5637 5637 5638 5640 5642 5643 5645 5647 5648 5649 5649 5649 5650 5651 5652 5653 5654 5655
5567 5569 5570 5570 5572 5575 5577 5578 5579 5581 5583 5584 5586 5588 5589 5591 5592 5593 5594 5595 5597 5599 5602 5604 5605 5605 5606 5607 5609 5610 5612 5614 5615 5617 5619 5620 5621 5623 5624 5625 5626 5627 5627 5626 5627 5628 5629 5630 5631 5632 5633 5634 5635 5637 5638 5639 5641 5644 5645 5646 5647 5647 5647 5647 5648 5649 5650 5651 5652
5569 5570 5571 5572 5573 5575 5577 5579 5580 5582 5584 5585 5586 5588 5589 5591 5592 5594 5594 5595 5596 5597 5598 5600 5601 5603 5604 5605 5606 5608 5609 5610 5612 5613 5615 5616 5618 5619 5621 5623 5624 5625 5625 5625 5625 5626 5627 5628 5629 5629 5631 5633 5635 5635 5635 5637 5639 5640 5641 5642 5643 5644 5644 5644 5645 5646 5647 5648 5649
5572 5573 5574 5574 5574 5576 5578 5579 5582 5583 5584 5585 5586 5588 5589 5591 5592 5593 5594 5595 5596 5597 5598 5598 5599 5601 5603 5604 5605 5606 5607 5608 5609 5611 5612 5614 5615 5616 5617 5618 5619 5620 5622 5623 5623 5623 5624 5625 5626 5627 5629 5631 5633 5633 5634 5634 5635 5636 5637 5638 5639 5639 5640 5641 5642 5643 5644 5645 5646
5575 5575 5576 5576 5577 5577 5579 5581 5582 5583 5584 5584 5585 5587 5588 5589 5591 5592 5594 5595 5597 5598 5599 5599 5600 5600 5601 5602 5603 5604 5605 5606 5607 5609 5610 5611 5612 5613 5614 5615 5615 5616 5617 5618 5619 5620 5621 5622 5623 5625 5627 5629 5630 5630 5631 5631 5632 5633 5634 5635 5636 5636 5637 5638 5639 5640 5641 5642 5643
5575 5576 5577 5578 5578 5578 5579 5580 5581 5582 5583 5584 5584 5585 5586 5587 5589 5591 5593 5594 5596 5597 5598 5599 5600 5600 5601 5602 5603 5603 5604 5605 5606 5607 5608 5608 5609 5609 5610 5611 5612 5613 5614 5614 5615 5617 5618 5619 5620 5622 5624 5625 5626 5627 5627 5628 5629 5630 5631 5632 5633 5633 5634 5635 5636 5637 5638 5639 5640
5574 5575 5576 5578 5579 5579 5580 5580 5581 5582 5583 5583 5583 5583 5584 5585 5587 5589 5590 5592 5594 5595 5596 5597 5599 5599 5600 5601 5602 5602 5602 5603 5604 5604 5605 5605 5606 5607 5607 5608 5609 5609 5610 5611 5613 5614 5614 5616 5618 5619 5620 5621 5622 5623 5624 5625 5626 5627 5628 5629 5629 5630 5631 5632 5633 5634 5635 5636 5638
5575 5575 5576 5576 5578 5579 5580 5581 5582 5583 5584 5584 5583 5583 5583 5584 5586 5587 5589 5590 5591 5592 5594 5595 5596 5597 5598 5599 5599 5600 5600 5601 5602 5603 5604 5604 5605 5605 5605 5607 5607 5608 5608 5609 5611 5611 5612 5613 5614 5616 5616 5617 5618 5619 5621 5622 5624 5624 5625 5626 5627 5627 5628 5629 5630 5631 5633 5634 5635
5575 5576 5576 5576 5577 5578 5579 5579 5580 5581 5582 5582 5583 5583 5584 5584 5585 5586 5588 5589 5589 5590 5591 5592 5593 5594 5594 5595 5595 5596 5597 5598 5599 5600 5601 5602 5603 5604 5604 5604 5605 5606 5607 5608 5609 5609 5610 5611 5612 5613 5613 5614 5615 5617 5618 5620 5621 5622 5623 5624 5624 5625 5626 5627 5628 5629 5630 5632 5634
5575 5576 5576 5577 5577 5578 5578 5578 5579 5579 5579 5579 5580 5581 5582 5583 5584 5584 5585 5586 5587 5588 5589 5590 5590 5591 5591 5592 5592 5593 5594 5594 5595 5596 5598 5599 5599 5600 5601 5601 5602 5603 5604 5605 5607 5607 5608 5609 5609 5610 5611 5612 5613 5614 5615 5617 5618 5619 5620 5621 5623 5624 5624 5625 5626 5627 5629 5631 5633
5576 5576 5576 5577 5577 5578 5578 5578 5578 5578 5578 5579 5579 5579 5580 5581 5582 5583 5583 5584 5584 5585 5586 5588 5589 5589 5589 5590 5590 5590 5591 5591 5592 5593 5594 5594 5595 5596 5597 5598 5599 5600 5601 5602 5603 5604 5606 5607 5607 5607 5608 5609 5610 5611 5613 5614 5615 5616 5618 5619 5620 5621 5622 5623 5624 5626 5627 5629 5630
5576 5576 5577 5577 5577 5577 5577 5577 5577 5577 5578 5578 5578 5578 5579 5579 5580 5581 5581 5582 5582 5583 5583 5584 5585 5586 5587 5587 5587 5588 5588 5589 5589 5590 5590 5591 5592 5593 5594 5594 5596 5597 5598 5599 5599 5601 5602 5603 5604 5604 5605 5606 5608 5609 5610 5611 5613 5614 5615 5616 5617 5618 5619 5620 5622 5623 5624 5625 5626
5577 5577 5577 5577 5577 5576 5576 5576 5576 5576 5576 5576 5576 5577 5578 5578 5579 5579 5579 5580 5580 5580 5581 5581 5582 5583 5583 5584 5584 5585 5585 5586 5586 5587 5588 5588 5589 5589 5590 5591 5592 5593 5594 5595 5597 5597 5598 5599 5599 5601 5602 5604 5605 5606 5607 5609 5610 5611 5612 5613 5614 5615 5617 5618 5619 5620 5621 5622 5623
5577 5576 5576 5576 5576 5576 5576 5575 5575 5575 5574 5574 5574 5575 5575 5576 5576 5577 5578 5578 5578 5579 5579 5579 5579 5580 5581 5581 5582 5582 5583 5583 5584 5584 5584 5585 5585 5586 5587 5588 5589 5590 5591 5592 5593 5594 5595 5596 5597 5597 5599 5600 5602 5603 5604 5606 5607 5608 5609 5610 5611 5613 5614 5615 5616 5617 5618 5619 5619
5576 5576 5576 5575 5575 5575 5575 5575 5574 5574 5574 5574 5573 5573 5573 5573 5574 5574 5574 5575 5576 5577 5577 5577 5577 5578 5578 5579 5579 5579 5579 5579 5580 5581 5581 5582 5582 5583 5584 5584 5585 5586 5587 5588 5589 5590 5592 5593 5594 5594 5595 5596 5598 5600 5602 5604 5604 5605 5606 5607 5609 5610 5611 5611 5612 5613 5614 5614 5615
5575 5575 5575 5574 5574 5574 5574 5574 5573 5573 5573 5573 5572 5572 5572 5571 5571 5571 5571 5572 5572 5573 5574 5574 5575 5575 5575 5575 5575 5575 5576 5576 5577 5577 5578 5578 5579 5579 5580 5581 5582 5583 5584 5584 5586 5587 5588 5589 5590 5591 5592 5593 5594 5596 5598 5600 5601 5602 5603 5604 5604 5606 5607 5607 5608 5609 5610 5610 5611